Year,Month,Day,Hour,Minute,Value (Times are PST for temperature in C)
2019,11,29,00,00,-5.60
2019,11,29,00,01,-5.60
2019,11,29,00,02,-5.60
2019,11,29,00,03,-5.60
2019,11,29,00,04,-5.60
2019,11,29,00,05,-5.60
2019,11,29,00,06,-5.70
2019,11,29,00,07,-5.70
2019,11,29,00,08,-5.70
2019,11,29,00,09,-5.70
2019,11,29,00,10,-5.70
2019,11,29,00,11,-5.70
2019,11,29,00,12,-5.70
2019,11,29,00,13,-5.70
2019,11,29,00,14,-5.70
2019,11,29,00,15,-5.70
2019,11,29,00,16,-5.70
2019,11,29,00,17,-5.70
2019,11,29,00,18,-5.70
2019,11,29,00,19,-5.70
2019,11,29,00,20,-5.70
2019,11,29,00,21,-5.70
2019,11,29,00,22,-5.70
2019,11,29,00,23,-5.70
2019,11,29,00,24,-5.70
2019,11,29,00,25,-5.70
2019,11,29,00,26,-5.70
2019,11,29,00,27,-5.70
2019,11,29,00,28,-5.70
2019,11,29,00,29,-5.70
2019,11,29,00,30,-5.70
2019,11,29,00,31,-5.70
2019,11,29,00,32,-5.70
2019,11,29,00,33,-5.70
2019,11,29,00,34,-5.70
2019,11,29,00,35,-5.70
2019,11,29,00,36,-5.70
2019,11,29,00,37,-5.70
2019,11,29,00,38,-5.70
2019,11,29,00,39,-5.80
2019,11,29,00,40,-5.80
2019,11,29,00,41,-5.80
2019,11,29,00,42,-5.80
2019,11,29,00,43,-5.80
2019,11,29,00,44,-5.80
2019,11,29,00,45,-5.80
2019,11,29,00,46,-5.80
2019,11,29,00,47,-5.80
2019,11,29,00,48,-5.80
2019,11,29,00,49,-5.80
2019,11,29,00,50,-5.90
2019,11,29,00,51,-5.90
2019,11,29,00,52,-5.90
2019,11,29,00,53,-5.90
2019,11,29,00,54,-5.90
2019,11,29,00,55,-5.90
2019,11,29,00,56,-6.00
2019,11,29,00,57,-6.00
2019,11,29,00,58,-6.00
2019,11,29,00,59,-6.00
2019,11,29,01,00,-6.00
2019,11,29,01,01,-6.10
2019,11,29,01,02,-6.10
2019,11,29,01,03,-6.10
2019,11,29,01,04,-6.10
2019,11,29,01,05,-6.10
2019,11,29,01,06,-6.10
2019,11,29,01,07,-6.00
2019,11,29,01,08,-6.00
2019,11,29,01,09,-6.00
2019,11,29,01,10,-6.00
2019,11,29,01,11,-6.00
2019,11,29,01,12,-6.00
2019,11,29,01,13,-5.90
2019,11,29,01,14,-6.00
2019,11,29,01,15,-6.00
2019,11,29,01,16,-6.00
2019,11,29,01,17,-6.00
2019,11,29,01,18,-6.00
2019,11,29,01,19,-6.00
2019,11,29,01,20,-6.00
2019,11,29,01,21,-6.00
2019,11,29,01,22,-5.90
2019,11,29,01,23,-5.90
2019,11,29,01,24,-5.90
2019,11,29,01,25,-5.90
2019,11,29,01,26,-5.90
2019,11,29,01,27,-5.90
2019,11,29,01,28,-5.90
2019,11,29,01,29,-5.90
2019,11,29,01,30,-5.90
2019,11,29,01,31,-5.90
2019,11,29,01,32,-5.90
2019,11,29,01,33,-5.90
2019,11,29,01,34,-6.00
2019,11,29,01,35,-6.00
2019,11,29,01,36,-6.00
2019,11,29,01,37,-6.00
2019,11,29,01,38,-6.00
2019,11,29,01,39,-6.00
2019,11,29,01,40,-6.00
2019,11,29,01,41,-6.00
2019,11,29,01,42,-6.00
2019,11,29,01,43,-6.00
2019,11,29,01,44,-6.00
2019,11,29,01,45,-6.10
2019,11,29,01,46,-6.10
2019,11,29,01,47,-6.10
2019,11,29,01,48,-6.10
2019,11,29,01,49,-6.10
2019,11,29,01,50,-6.10
2019,11,29,01,51,-6.10
2019,11,29,01,52,-6.10
2019,11,29,01,53,-6.10
2019,11,29,01,54,-6.10
2019,11,29,01,55,-6.10
2019,11,29,01,56,-6.10
2019,11,29,01,57,-6.20
2019,11,29,01,58,-6.20
2019,11,29,01,59,-6.20
2019,11,29,02,00,-6.20
2019,11,29,02,01,-6.20
2019,11,29,02,02,-6.20
2019,11,29,02,03,-6.20
2019,11,29,02,04,-6.20
2019,11,29,02,05,-6.20
2019,11,29,02,06,-6.20
2019,11,29,02,07,-6.20
2019,11,29,02,08,-6.20
2019,11,29,02,09,-6.20
2019,11,29,02,10,-6.20
2019,11,29,02,11,-6.20
2019,11,29,02,12,-6.20
2019,11,29,02,13,-6.20
2019,11,29,02,14,-6.20
2019,11,29,02,15,-6.20
2019,11,29,02,16,-6.20
2019,11,29,02,17,-6.30
2019,11,29,02,18,-6.20
2019,11,29,02,19,-6.20
2019,11,29,02,20,-6.20
2019,11,29,02,21,-6.20
2019,11,29,02,22,-6.20
2019,11,29,02,23,-6.20
2019,11,29,02,24,-6.20
2019,11,29,02,25,-6.20
2019,11,29,02,26,-6.20
2019,11,29,02,27,-6.20
2019,11,29,02,28,-6.20
2019,11,29,02,29,-6.20
2019,11,29,02,30,-6.20
2019,11,29,02,31,-6.20
2019,11,29,02,32,-6.20
2019,11,29,02,33,-6.20
2019,11,29,02,34,-6.20
2019,11,29,02,35,-6.20
2019,11,29,02,36,-6.20
2019,11,29,02,37,-6.20
2019,11,29,02,38,-6.20
2019,11,29,02,39,-6.20
2019,11,29,02,40,-6.20
2019,11,29,02,41,-6.20
2019,11,29,02,42,-6.20
2019,11,29,02,43,-6.20
2019,11,29,02,44,-6.20
2019,11,29,02,45,-6.20
2019,11,29,02,46,-6.20
2019,11,29,02,47,-6.30
2019,11,29,02,48,-6.30
2019,11,29,02,49,-6.30
2019,11,29,02,50,-6.30
2019,11,29,02,51,-6.30
2019,11,29,02,52,-6.30
2019,11,29,02,53,-6.30
2019,11,29,02,54,-6.30
2019,11,29,02,55,-6.30
2019,11,29,02,56,-6.30
2019,11,29,02,57,-6.30
2019,11,29,02,58,-6.30
2019,11,29,02,59,-6.40
2019,11,29,03,00,-6.40
2019,11,29,03,01,-6.40
2019,11,29,03,02,-6.40
2019,11,29,03,03,-6.40
2019,11,29,03,04,-6.40
2019,11,29,03,05,-6.40
2019,11,29,03,06,-6.40
2019,11,29,03,07,-6.40
2019,11,29,03,08,-6.40
2019,11,29,03,09,-6.40
2019,11,29,03,10,-6.40
2019,11,29,03,11,-6.40
2019,11,29,03,12,-6.40
2019,11,29,03,13,-6.40
2019,11,29,03,14,-6.40
2019,11,29,03,15,-6.40
2019,11,29,03,16,-6.40
2019,11,29,03,17,-6.40
2019,11,29,03,18,-6.40
2019,11,29,03,19,-6.40
2019,11,29,03,20,-6.40
2019,11,29,03,21,-6.40
2019,11,29,03,22,-6.40
2019,11,29,03,23,-6.50
2019,11,29,03,24,-6.50
2019,11,29,03,25,-6.50
2019,11,29,03,26,-6.50
2019,11,29,03,27,-6.50
2019,11,29,03,28,-6.50
2019,11,29,03,29,-6.50
2019,11,29,03,30,-6.50
2019,11,29,03,31,-6.50
2019,11,29,03,32,-6.50
2019,11,29,03,33,-6.60
2019,11,29,03,34,-6.60
2019,11,29,03,35,-6.60
2019,11,29,03,36,-6.60
2019,11,29,03,37,-6.60
2019,11,29,03,38,-6.60
2019,11,29,03,39,-6.60
2019,11,29,03,40,-6.60
2019,11,29,03,41,-6.60
2019,11,29,03,42,-6.60
2019,11,29,03,43,-6.60
2019,11,29,03,44,-6.60
2019,11,29,03,45,-6.60
2019,11,29,03,46,-6.60
2019,11,29,03,47,-6.60
2019,11,29,03,48,-6.60
2019,11,29,03,49,-6.60
2019,11,29,03,50,-6.60
2019,11,29,03,51,-6.60
2019,11,29,03,52,-6.60
2019,11,29,03,53,-6.60
2019,11,29,03,54,-6.60
2019,11,29,03,55,-6.60
2019,11,29,03,56,-6.50
2019,11,29,03,57,-6.50
2019,11,29,03,58,-6.50
2019,11,29,03,59,-6.50
2019,11,29,04,00,-6.40
2019,11,29,04,01,-6.40
2019,11,29,04,02,-6.40
2019,11,29,04,03,-6.50
2019,11,29,04,04,-6.50
2019,11,29,04,05,-6.40
2019,11,29,04,06,-6.40
2019,11,29,04,07,-6.40
2019,11,29,04,08,-6.40
2019,11,29,04,09,-6.40
2019,11,29,04,10,-6.40
2019,11,29,04,11,-6.40
2019,11,29,04,12,-6.40
2019,11,29,04,13,-6.40
2019,11,29,04,14,-6.40
2019,11,29,04,15,-6.40
2019,11,29,04,16,-6.60
2019,11,29,04,17,-6.60
2019,11,29,04,18,-6.60
2019,11,29,04,19,-6.60
2019,11,29,04,20,-6.60
2019,11,29,04,21,-6.60
2019,11,29,04,22,-6.60
2019,11,29,04,23,-6.60
2019,11,29,04,24,-6.70
2019,11,29,04,25,-6.70
2019,11,29,04,26,-6.70
2019,11,29,04,27,-6.70
2019,11,29,04,28,-6.70
2019,11,29,04,29,-6.70
2019,11,29,04,30,-6.70
2019,11,29,04,31,-6.70
2019,11,29,04,32,-6.70
2019,11,29,04,33,-6.70
2019,11,29,04,34,-6.70
2019,11,29,04,35,-6.70
2019,11,29,04,36,-6.70
2019,11,29,04,37,-6.70
2019,11,29,04,38,-6.70
2019,11,29,04,39,-6.70
2019,11,29,04,40,-6.70
2019,11,29,04,41,-6.70
2019,11,29,04,42,-6.70
2019,11,29,04,43,-6.70
2019,11,29,04,44,-6.70
2019,11,29,04,45,-6.70
2019,11,29,04,46,-6.70
2019,11,29,04,47,-6.70
2019,11,29,04,48,-6.70
2019,11,29,04,49,-6.70
2019,11,29,04,50,-6.70
2019,11,29,04,51,-6.70
2019,11,29,04,52,-6.70
2019,11,29,04,53,-6.70
2019,11,29,04,54,-6.70
2019,11,29,04,55,-6.70
2019,11,29,04,56,-6.70
2019,11,29,04,57,-6.70
2019,11,29,04,58,-6.70
2019,11,29,04,59,-6.70
2019,11,29,05,00,-6.70
2019,11,29,05,01,-6.70
2019,11,29,05,02,-6.70
2019,11,29,05,03,-6.60
2019,11,29,05,04,-6.60
2019,11,29,05,05,-6.60
2019,11,29,05,06,-6.60
2019,11,29,05,07,-6.60
2019,11,29,05,08,-6.60
2019,11,29,05,09,-6.60
2019,11,29,05,10,-6.60
2019,11,29,05,11,-6.60
2019,11,29,05,12,-6.60
2019,11,29,05,13,-6.60
2019,11,29,05,14,-6.60
2019,11,29,05,15,-6.60
2019,11,29,05,16,-6.60
2019,11,29,05,17,-6.60
2019,11,29,05,18,-6.60
2019,11,29,05,19,-6.50
2019,11,29,05,20,-6.50
2019,11,29,05,21,-6.50
2019,11,29,05,22,-6.50
2019,11,29,05,23,-6.50
2019,11,29,05,24,-6.50
2019,11,29,05,25,-6.50
2019,11,29,05,26,-6.40
2019,11,29,05,27,-6.40
2019,11,29,05,28,-6.40
2019,11,29,05,29,-6.40
2019,11,29,05,30,-6.40
2019,11,29,05,31,-6.40
2019,11,29,05,32,-6.40
2019,11,29,05,33,-6.40
2019,11,29,05,34,-6.40
2019,11,29,05,35,-6.40
2019,11,29,05,36,-6.40
2019,11,29,05,37,-6.40
2019,11,29,05,38,-6.40
2019,11,29,05,39,-6.40
2019,11,29,05,40,-6.40
2019,11,29,05,41,-6.40
2019,11,29,05,42,-6.40
2019,11,29,05,43,-6.30
2019,11,29,05,44,-6.30
2019,11,29,05,45,-6.30
2019,11,29,05,46,-6.30
2019,11,29,05,47,-6.30
2019,11,29,05,48,-6.40
2019,11,29,05,49,-6.40
2019,11,29,05,50,-6.40
2019,11,29,05,51,-6.40
2019,11,29,05,52,-6.40
2019,11,29,05,53,-6.30
2019,11,29,05,54,-6.30
2019,11,29,05,55,-6.30
2019,11,29,05,56,-6.30
2019,11,29,05,57,-6.30
2019,11,29,05,58,-6.30
2019,11,29,05,59,-6.30
2019,11,29,06,00,-6.30
2019,11,29,06,01,-6.30
2019,11,29,06,02,-6.30
2019,11,29,06,03,-6.30
2019,11,29,06,04,-6.30
2019,11,29,06,05,-6.30
2019,11,29,06,06,-6.40
2019,11,29,06,07,-6.40
2019,11,29,06,08,-6.40
2019,11,29,06,09,-6.40
2019,11,29,06,10,-6.40
2019,11,29,06,11,-6.40
2019,11,29,06,12,-6.40
2019,11,29,06,13,-6.40
2019,11,29,06,14,-6.40
2019,11,29,06,15,-6.40
2019,11,29,06,16,-6.40
2019,11,29,06,17,-6.40
2019,11,29,06,18,-6.40
2019,11,29,06,19,-6.40
2019,11,29,06,20,-6.40
2019,11,29,06,21,-6.40
2019,11,29,06,22,-6.40
2019,11,29,06,23,-6.40
2019,11,29,06,24,-6.40
2019,11,29,06,25,-6.40
2019,11,29,06,26,-6.30
2019,11,29,06,27,-6.30
2019,11,29,06,28,-6.30
2019,11,29,06,29,-6.30
2019,11,29,06,30,-6.30
2019,11,29,06,31,-6.30
2019,11,29,06,32,-6.30
2019,11,29,06,33,-6.40
2019,11,29,06,34,-6.40
2019,11,29,06,35,-6.40
2019,11,29,06,36,-6.40
2019,11,29,06,37,-6.40
2019,11,29,06,38,-6.40
2019,11,29,06,39,-6.40
2019,11,29,06,40,-6.40
2019,11,29,06,41,-6.40
2019,11,29,06,42,-6.40
2019,11,29,06,43,-6.40
2019,11,29,06,44,-6.40
2019,11,29,06,45,-6.50
2019,11,29,06,46,-6.50
2019,11,29,06,47,-6.50
2019,11,29,06,48,-6.50
2019,11,29,06,49,-6.50
2019,11,29,06,50,-6.50
2019,11,29,06,51,-6.50
2019,11,29,06,52,-6.50
2019,11,29,06,53,-6.50
2019,11,29,06,54,-6.50
2019,11,29,06,55,-6.50
2019,11,29,06,56,-6.50
2019,11,29,06,57,-6.50
2019,11,29,06,58,-6.60
2019,11,29,06,59,-6.60
2019,11,29,07,00,-6.60
2019,11,29,07,01,-6.60
2019,11,29,07,02,-6.60
2019,11,29,07,03,-6.60
2019,11,29,07,04,-6.60
2019,11,29,07,05,-6.60
2019,11,29,07,06,-6.60
2019,11,29,07,07,-6.60
2019,11,29,07,08,-6.60
2019,11,29,07,09,-6.60
2019,11,29,07,10,-6.60
2019,11,29,07,11,-6.60
2019,11,29,07,12,-6.60
2019,11,29,07,13,-6.60
2019,11,29,07,14,-6.50
2019,11,29,07,15,-6.60
2019,11,29,07,16,-6.50
2019,11,29,07,17,-6.50
2019,11,29,07,18,-6.50
2019,11,29,07,19,-6.50
2019,11,29,07,20,-6.50
2019,11,29,07,21,-6.50
2019,11,29,07,22,-6.50
2019,11,29,07,23,-6.50
2019,11,29,07,24,-6.40
2019,11,29,07,25,-6.40
2019,11,29,07,26,-6.40
2019,11,29,07,27,-6.40
2019,11,29,07,28,-6.40
2019,11,29,07,29,-6.40
2019,11,29,07,30,-6.40
2019,11,29,07,31,-6.40
2019,11,29,07,32,-6.40
2019,11,29,07,33,-6.40
2019,11,29,07,34,-6.40
2019,11,29,07,35,-6.40
2019,11,29,07,36,-6.50
2019,11,29,07,37,-6.40
2019,11,29,07,38,-6.40
2019,11,29,07,39,-6.40
2019,11,29,07,40,-6.40
2019,11,29,07,41,-6.40
2019,11,29,07,42,-6.50
2019,11,29,07,43,-6.40
2019,11,29,07,44,-6.50
2019,11,29,07,45,-6.40
2019,11,29,07,46,-6.40
2019,11,29,07,47,-6.50
2019,11,29,07,48,-6.50
2019,11,29,07,49,-6.40
2019,11,29,07,50,-6.40
2019,11,29,07,51,-6.40
2019,11,29,07,52,-6.40
2019,11,29,07,53,-6.40
2019,11,29,07,54,-6.40
2019,11,29,07,55,-6.40
2019,11,29,07,56,-6.40
2019,11,29,07,57,-6.40
2019,11,29,07,58,-6.40
2019,11,29,07,59,-6.40
2019,11,29,08,00,-6.40
2019,11,29,08,01,-6.40
2019,11,29,08,02,-6.40
2019,11,29,08,03,-6.40
2019,11,29,08,04,-6.40
2019,11,29,08,05,-6.40
2019,11,29,08,06,-6.40
2019,11,29,08,07,-6.30
2019,11,29,08,08,-6.30
2019,11,29,08,09,-6.30
2019,11,29,08,10,-6.30
2019,11,29,08,11,-6.30
2019,11,29,08,12,-6.30
2019,11,29,08,13,-6.30
2019,11,29,08,14,-6.30
2019,11,29,08,15,-6.30
2019,11,29,08,16,-6.30
2019,11,29,08,17,-6.30
2019,11,29,08,18,-6.30
2019,11,29,08,19,-6.30
2019,11,29,08,20,-6.20
2019,11,29,08,21,-6.20
2019,11,29,08,22,-6.20
2019,11,29,08,23,-6.20
2019,11,29,08,24,-6.20
2019,11,29,08,25,-6.20
2019,11,29,08,26,-6.20
2019,11,29,08,27,-6.20
2019,11,29,08,28,-6.20
2019,11,29,08,29,-6.20
2019,11,29,08,30,-6.20
2019,11,29,08,31,-6.20
2019,11,29,08,32,-6.10
2019,11,29,08,33,-6.10
2019,11,29,08,34,-6.10
2019,11,29,08,35,-6.10
2019,11,29,08,36,-6.10
2019,11,29,08,37,-6.10
2019,11,29,08,38,-6.10
2019,11,29,08,39,-6.10
2019,11,29,08,40,-6.10
2019,11,29,08,41,-6.00
2019,11,29,08,42,-6.00
2019,11,29,08,43,-6.00
2019,11,29,08,44,-6.00
2019,11,29,08,45,-6.00
2019,11,29,08,46,-6.00
2019,11,29,08,47,-5.90
2019,11,29,08,48,-5.90
2019,11,29,08,49,-5.90
2019,11,29,08,50,-5.90
2019,11,29,08,51,-5.80
2019,11,29,08,52,-5.80
2019,11,29,08,53,-5.80
2019,11,29,08,54,-5.80
2019,11,29,08,55,-5.70
2019,11,29,08,56,-5.70
2019,11,29,08,57,-5.70
2019,11,29,08,58,-5.60
2019,11,29,08,59,-5.60
2019,11,29,09,00,-5.60
2019,11,29,09,01,-5.50
2019,11,29,09,02,-5.50
2019,11,29,09,03,-5.50
2019,11,29,09,04,-5.40
2019,11,29,09,05,-5.40
2019,11,29,09,06,-5.40
2019,11,29,09,07,-5.30
2019,11,29,09,08,-5.30
2019,11,29,09,09,-5.20
2019,11,29,09,10,-5.20
2019,11,29,09,11,-5.10
2019,11,29,09,12,-5.10
2019,11,29,09,13,-5.00
2019,11,29,09,14,-4.90
2019,11,29,09,15,-4.80
2019,11,29,09,16,-4.80
2019,11,29,09,17,-4.70
2019,11,29,09,18,-4.70
2019,11,29,09,19,-4.70
2019,11,29,09,20,-4.60
2019,11,29,09,21,-4.60
2019,11,29,09,22,-4.60
2019,11,29,09,23,-4.60
2019,11,29,09,24,-4.60
2019,11,29,09,25,-4.50
2019,11,29,09,26,-4.50
2019,11,29,09,27,-4.40
2019,11,29,09,28,-4.40
2019,11,29,09,29,-4.40
2019,11,29,09,30,-4.40
2019,11,29,09,31,-4.40
2019,11,29,09,32,-4.40
2019,11,29,09,33,-4.40
2019,11,29,09,34,-4.40
2019,11,29,09,35,-4.40
2019,11,29,09,36,-4.40
2019,11,29,09,37,-4.30
2019,11,29,09,38,-4.20
2019,11,29,09,39,-4.20
2019,11,29,09,40,-4.10
2019,11,29,09,41,-4.00
2019,11,29,09,42,-4.00
2019,11,29,09,43,-3.90
2019,11,29,09,44,-3.80
2019,11,29,09,45,-3.80
2019,11,29,09,46,-3.70
2019,11,29,09,47,-3.60
2019,11,29,09,48,-3.50
2019,11,29,09,49,-3.50
2019,11,29,09,50,-3.50
2019,11,29,09,51,-3.40
2019,11,29,09,52,-3.40
2019,11,29,09,53,-3.40
2019,11,29,09,54,-3.40
2019,11,29,09,55,-3.50
2019,11,29,09,56,-3.50
2019,11,29,09,57,-3.40
2019,11,29,09,58,-3.40
2019,11,29,09,59,-3.30
2019,11,29,10,00,-3.30
2019,11,29,10,01,-3.20
2019,11,29,10,02,-3.20
2019,11,29,10,03,-3.20
2019,11,29,10,04,-3.20
2019,11,29,10,05,-3.20
2019,11,29,10,06,-3.10
2019,11,29,10,07,-3.10
2019,11,29,10,08,-3.00
2019,11,29,10,09,-2.90
2019,11,29,10,10,-2.90
2019,11,29,10,11,-2.90
2019,11,29,10,12,-2.90
2019,11,29,10,13,-2.90
2019,11,29,10,14,-3.00
2019,11,29,10,15,-3.00
2019,11,29,10,16,-3.10
2019,11,29,10,17,-3.10
2019,11,29,10,18,-3.10
2019,11,29,10,19,-3.10
2019,11,29,10,20,-3.10
2019,11,29,10,21,-3.10
2019,11,29,10,22,-3.10
2019,11,29,10,23,-3.10
2019,11,29,10,24,-3.10
2019,11,29,10,25,-3.10
2019,11,29,10,26,-3.10
2019,11,29,10,27,-3.10
2019,11,29,10,28,-3.00
2019,11,29,10,29,-3.00
2019,11,29,10,30,-3.00
2019,11,29,10,31,-3.00
2019,11,29,10,32,-3.00
2019,11,29,10,33,-2.90
2019,11,29,10,34,-2.90
2019,11,29,10,35,-2.90
2019,11,29,10,36,-2.80
2019,11,29,10,37,-2.70
2019,11,29,10,38,-2.60
2019,11,29,10,39,-2.50
2019,11,29,10,40,-2.30
2019,11,29,10,41,-2.20
2019,11,29,10,42,-2.10
2019,11,29,10,43,-1.90
2019,11,29,10,44,-1.80
2019,11,29,10,45,-1.70
2019,11,29,10,46,-1.70
2019,11,29,10,47,-1.60
2019,11,29,10,48,-1.60
2019,11,29,10,49,-1.60
2019,11,29,10,50,-1.50
2019,11,29,10,51,-1.50
2019,11,29,10,52,-1.40
2019,11,29,10,53,-1.40
2019,11,29,10,54,-1.40
2019,11,29,10,55,-1.30
2019,11,29,10,56,-1.30
2019,11,29,10,57,-1.30
2019,11,29,10,58,-1.40
2019,11,29,10,59,-1.40
2019,11,29,11,00,-1.40
2019,11,29,11,01,-1.40
2019,11,29,11,02,-1.50
2019,11,29,11,03,-1.50
2019,11,29,11,04,-1.50
2019,11,29,11,05,-1.40
2019,11,29,11,06,-1.40
2019,11,29,11,07,-1.30
2019,11,29,11,08,-1.20
2019,11,29,11,09,-1.20
2019,11,29,11,10,-1.10
2019,11,29,11,11,-1.10
2019,11,29,11,12,-1.10
2019,11,29,11,13,-1.10
2019,11,29,11,14,-1.00
2019,11,29,11,15,-0.90
2019,11,29,11,16,-0.90
2019,11,29,11,17,-0.90
2019,11,29,11,18,-0.80
2019,11,29,11,19,-0.80
2019,11,29,11,20,-0.70
2019,11,29,11,21,-0.60
2019,11,29,11,22,-0.50
2019,11,29,11,23,-0.40
2019,11,29,11,24,-0.30
2019,11,29,11,25,-0.30
2019,11,29,11,26,-0.20
2019,11,29,11,27,-0.30
2019,11,29,11,28,-0.20
2019,11,29,11,29,-0.20
2019,11,29,11,30,-0.20
2019,11,29,11,31,-0.10
2019,11,29,11,32,0.00
2019,11,29,11,33,0.00
2019,11,29,11,34,0.10
2019,11,29,11,35,0.20
2019,11,29,11,36,0.20
2019,11,29,11,37,0.30
2019,11,29,11,38,0.30
2019,11,29,11,39,0.30
2019,11,29,11,40,0.20
2019,11,29,11,41,0.20
2019,11,29,11,42,0.10
2019,11,29,11,43,0.00
2019,11,29,11,44,-0.10
2019,11,29,11,45,-0.10
2019,11,29,11,46,-0.20
2019,11,29,11,47,-0.20
2019,11,29,11,48,-0.30
2019,11,29,11,49,-0.30
2019,11,29,11,50,-0.30
2019,11,29,11,51,-0.30
2019,11,29,11,52,-0.30
2019,11,29,11,53,-0.30
2019,11,29,11,54,-0.30
2019,11,29,11,55,-0.30
2019,11,29,11,56,-0.30
2019,11,29,11,57,-0.30
2019,11,29,11,58,-0.30
2019,11,29,11,59,-0.30
2019,11,29,12,00,-0.30
2019,11,29,12,01,-0.20
2019,11,29,12,02,-0.20
2019,11,29,12,03,-0.20
2019,11,29,12,04,-0.10
2019,11,29,12,05,-0.10
2019,11,29,12,06,0.00
2019,11,29,12,07,0.10
2019,11,29,12,08,0.20
2019,11,29,12,09,0.30
2019,11,29,12,10,0.40
2019,11,29,12,11,0.40
2019,11,29,12,12,0.50
2019,11,29,12,13,0.60
2019,11,29,12,14,0.60
2019,11,29,12,15,0.70
2019,11,29,12,16,0.70
2019,11,29,12,17,0.70
2019,11,29,12,18,0.70
2019,11,29,12,19,0.70
2019,11,29,12,20,0.70
2019,11,29,12,21,0.70
2019,11,29,12,22,0.70
2019,11,29,12,23,0.70
2019,11,29,12,24,0.70
2019,11,29,12,25,0.70
2019,11,29,12,26,0.60
2019,11,29,12,27,0.60
2019,11,29,12,28,0.60
2019,11,29,12,29,0.70
2019,11,29,12,30,0.70
2019,11,29,12,31,0.90
2019,11,29,12,32,1.00
2019,11,29,12,33,1.10
2019,11,29,12,34,1.20
2019,11,29,12,35,1.30
2019,11,29,12,36,1.40
2019,11,29,12,37,1.50
2019,11,29,12,38,1.50
2019,11,29,12,39,1.50
2019,11,29,12,40,1.50
2019,11,29,12,41,1.50
2019,11,29,12,42,1.50
2019,11,29,12,43,1.50
2019,11,29,12,44,1.40
2019,11,29,12,45,1.40
2019,11,29,12,46,1.40
2019,11,29,12,47,1.40
2019,11,29,12,48,1.40
2019,11,29,12,49,1.40
2019,11,29,12,50,1.30
2019,11,29,12,51,1.30
2019,11,29,12,52,1.30
2019,11,29,12,53,1.30
2019,11,29,12,54,1.30
2019,11,29,12,55,1.30
2019,11,29,12,56,1.40
2019,11,29,12,57,1.50
2019,11,29,12,58,1.50
2019,11,29,12,59,1.50
2019,11,29,13,00,1.50
2019,11,29,13,01,1.50
2019,11,29,13,02,1.50
2019,11,29,13,03,1.60
2019,11,29,13,04,1.60
2019,11,29,13,05,1.60
2019,11,29,13,06,1.60
2019,11,29,13,07,1.60
2019,11,29,13,08,1.60
2019,11,29,13,09,1.70
2019,11,29,13,10,1.70
2019,11,29,13,11,1.70
2019,11,29,13,12,1.80
2019,11,29,13,13,1.80
2019,11,29,13,14,1.80
2019,11,29,13,15,1.90
2019,11,29,13,16,1.90
2019,11,29,13,17,1.90
2019,11,29,13,18,1.90
2019,11,29,13,19,1.90
2019,11,29,13,20,1.90
2019,11,29,13,21,1.90
2019,11,29,13,22,1.90
2019,11,29,13,23,1.90
2019,11,29,13,24,2.00
2019,11,29,13,25,2.00
2019,11,29,13,26,2.00
2019,11,29,13,27,2.00
2019,11,29,13,28,2.00
2019,11,29,13,29,1.90
2019,11,29,13,30,1.90
2019,11,29,13,31,2.00
2019,11,29,13,32,2.00
2019,11,29,13,33,2.10
2019,11,29,13,34,2.20
2019,11,29,13,35,2.30
2019,11,29,13,36,2.40
2019,11,29,13,37,2.50
2019,11,29,13,38,2.50
2019,11,29,13,39,2.60
2019,11,29,13,40,2.70
2019,11,29,13,41,2.80
2019,11,29,13,42,2.80
2019,11,29,13,43,2.90
2019,11,29,13,44,3.00
2019,11,29,13,45,3.00
2019,11,29,13,46,3.10
2019,11,29,13,47,3.10
2019,11,29,13,48,3.20
2019,11,29,13,49,3.20
2019,11,29,13,50,3.20
2019,11,29,13,51,3.20
2019,11,29,13,52,3.20
2019,11,29,13,53,3.20
2019,11,29,13,54,3.20
2019,11,29,13,55,3.10
2019,11,29,13,56,3.10
2019,11,29,13,57,3.10
2019,11,29,13,58,3.10
2019,11,29,13,59,3.10
2019,11,29,14,00,3.10
2019,11,29,14,01,3.20
2019,11,29,14,02,3.30
2019,11,29,14,03,3.40
2019,11,29,14,04,3.50
2019,11,29,14,05,3.50
2019,11,29,14,06,3.60
2019,11,29,14,07,3.60
2019,11,29,14,08,3.60
2019,11,29,14,09,3.60
2019,11,29,14,10,3.50
2019,11,29,14,11,3.50
2019,11,29,14,12,3.40
2019,11,29,14,13,3.30
2019,11,29,14,14,3.30
2019,11,29,14,15,3.20
2019,11,29,14,16,3.20
2019,11,29,14,17,3.10
2019,11,29,14,18,3.10
2019,11,29,14,19,3.10
2019,11,29,14,20,3.10
2019,11,29,14,21,3.10
2019,11,29,14,22,3.10
2019,11,29,14,23,3.10
2019,11,29,14,24,3.10
2019,11,29,14,25,3.10
2019,11,29,14,26,3.10
2019,11,29,14,27,3.10
2019,11,29,14,28,3.10
2019,11,29,14,29,3.00
2019,11,29,14,30,3.00
2019,11,29,14,31,2.90
2019,11,29,14,32,2.90
2019,11,29,14,33,2.80
2019,11,29,14,34,2.70
2019,11,29,14,35,2.70
2019,11,29,14,36,2.60
2019,11,29,14,37,2.60
2019,11,29,14,38,2.50
2019,11,29,14,39,2.50
2019,11,29,14,40,2.40
2019,11,29,14,41,2.40
2019,11,29,14,42,2.40
2019,11,29,14,43,2.30
2019,11,29,14,44,2.30
2019,11,29,14,45,2.20
2019,11,29,14,46,2.20
2019,11,29,14,47,2.10
2019,11,29,14,48,2.00
2019,11,29,14,49,1.90
2019,11,29,14,50,1.90
2019,11,29,14,51,1.80
2019,11,29,14,52,1.70
2019,11,29,14,53,1.50
2019,11,29,14,54,1.40
2019,11,29,14,55,1.30
2019,11,29,14,56,1.20
2019,11,29,14,57,1.00
2019,11,29,14,58,0.90
2019,11,29,14,59,0.80
2019,11,29,15,00,0.70
2019,11,29,15,01,0.50
2019,11,29,15,02,0.40
2019,11,29,15,03,0.30
2019,11,29,15,04,0.30
2019,11,29,15,05,0.20
2019,11,29,15,06,0.10
2019,11,29,15,07,0.00
2019,11,29,15,08,0.00
2019,11,29,15,09,-0.10
2019,11,29,15,10,-0.20
2019,11,29,15,11,-0.20
2019,11,29,15,12,-0.30
2019,11,29,15,13,-0.30
2019,11,29,15,14,-0.40
2019,11,29,15,15,-0.40
2019,11,29,15,16,-0.50
2019,11,29,15,17,-0.60
2019,11,29,15,18,-0.60
2019,11,29,15,19,-0.70
2019,11,29,15,20,-0.70
2019,11,29,15,21,-0.80
2019,11,29,15,22,-0.80
2019,11,29,15,23,-0.80
2019,11,29,15,24,-0.90
2019,11,29,15,25,-0.90
2019,11,29,15,26,-1.00
2019,11,29,15,27,-1.00
2019,11,29,15,28,-1.00
2019,11,29,15,29,-1.10
2019,11,29,15,30,-1.10
2019,11,29,15,31,-1.10
2019,11,29,15,32,-1.20
2019,11,29,15,33,-1.20
2019,11,29,15,34,-1.20
2019,11,29,15,35,-1.20
2019,11,29,15,36,-1.20
2019,11,29,15,37,-1.20
2019,11,29,15,38,-1.20
2019,11,29,15,39,-1.20
2019,11,29,15,40,-1.30
2019,11,29,15,41,-1.30
2019,11,29,15,42,-1.30
2019,11,29,15,43,-1.30
2019,11,29,15,44,-1.30
2019,11,29,15,45,-1.30
2019,11,29,15,46,-1.30
2019,11,29,15,47,-1.30
2019,11,29,15,48,-1.40
2019,11,29,15,49,-1.40
2019,11,29,15,50,-1.40
2019,11,29,15,51,-1.40
2019,11,29,15,52,-1.40
2019,11,29,15,53,-1.40
2019,11,29,15,54,-1.50
2019,11,29,15,55,-1.50
2019,11,29,15,56,-1.50
2019,11,29,15,57,-1.60
2019,11,29,15,58,-1.60
2019,11,29,15,59,-1.60
2019,11,29,16,00,-1.60
2019,11,29,16,01,-1.60
2019,11,29,16,02,-1.60
2019,11,29,16,03,-1.70
2019,11,29,16,04,-1.70
2019,11,29,16,05,-1.70
2019,11,29,16,06,-1.70
2019,11,29,16,07,-1.70
2019,11,29,16,08,-1.70
2019,11,29,16,09,-1.70
2019,11,29,16,10,-1.80
2019,11,29,16,11,-1.80
2019,11,29,16,12,-1.80
2019,11,29,16,13,-1.80
2019,11,29,16,14,-1.80
2019,11,29,16,15,-1.80
2019,11,29,16,16,-1.90
2019,11,29,16,17,-1.90
2019,11,29,16,18,-1.90
2019,11,29,16,19,-1.90
2019,11,29,16,20,-1.90
2019,11,29,16,21,-2.00
2019,11,29,16,22,-2.00
2019,11,29,16,23,-2.00
2019,11,29,16,24,-2.00
2019,11,29,16,25,-2.00
2019,11,29,16,26,-2.10
2019,11,29,16,27,-2.10
2019,11,29,16,28,-2.10
2019,11,29,16,29,-2.10
2019,11,29,16,30,-2.10
2019,11,29,16,31,-2.10
2019,11,29,16,32,-2.10
2019,11,29,16,33,-2.20
2019,11,29,16,34,-2.20
2019,11,29,16,35,-2.20
2019,11,29,16,36,-2.20
2019,11,29,16,37,-2.20
2019,11,29,16,38,-2.20
2019,11,29,16,39,-2.20
2019,11,29,16,40,-2.20
2019,11,29,16,41,-2.20
2019,11,29,16,42,-2.20
2019,11,29,16,43,-2.20
2019,11,29,16,44,-2.20
2019,11,29,16,45,-2.30
2019,11,29,16,46,-2.30
2019,11,29,16,47,-2.30
2019,11,29,16,48,-2.30
2019,11,29,16,49,-2.30
2019,11,29,16,50,-2.30
2019,11,29,16,51,-2.30
2019,11,29,16,52,-2.30
2019,11,29,16,53,-2.30
2019,11,29,16,54,-2.40
2019,11,29,16,55,-2.40
2019,11,29,16,56,-2.40
2019,11,29,16,57,-2.40
2019,11,29,16,58,-2.50
2019,11,29,16,59,-2.50
2019,11,29,17,00,-2.50
2019,11,29,17,01,-2.60
2019,11,29,17,02,-2.60
2019,11,29,17,03,-2.60
2019,11,29,17,04,-2.70
2019,11,29,17,05,-2.70
2019,11,29,17,06,-2.70
2019,11,29,17,07,-2.70
2019,11,29,17,08,-2.80
2019,11,29,17,09,-2.80
2019,11,29,17,10,-2.80
2019,11,29,17,11,-2.80
2019,11,29,17,12,-2.80
2019,11,29,17,13,-2.80
2019,11,29,17,14,-2.80
2019,11,29,17,15,-2.80
2019,11,29,17,16,-2.80
2019,11,29,17,17,-2.80
2019,11,29,17,18,-2.80
2019,11,29,17,19,-2.80
2019,11,29,17,20,-2.80
2019,11,29,17,21,-2.80
2019,11,29,17,22,-2.80
2019,11,29,17,23,-2.80
2019,11,29,17,24,-2.90
2019,11,29,17,25,-2.90
2019,11,29,17,26,-2.90
2019,11,29,17,27,-2.90